Year,Month,Day,Hour,Minute,Value (Times are PST for temperature in C)
2023,05,15,00,00,18.50
2023,05,15,00,01,18.40
2023,05,15,00,02,18.40
2023,05,15,00,03,18.40
2023,05,15,00,04,18.40
2023,05,15,00,05,18.40
2023,05,15,00,06,18.40
2023,05,15,00,07,18.40
2023,05,15,00,08,18.40
2023,05,15,00,09,18.40
2023,05,15,00,10,18.40
2023,05,15,00,11,18.40
2023,05,15,00,12,18.40
2023,05,15,00,13,18.50
2023,05,15,00,14,18.50
2023,05,15,00,15,18.50
2023,05,15,00,16,18.50
2023,05,15,00,17,18.50
2023,05,15,00,18,18.50
2023,05,15,00,19,18.40
2023,05,15,00,20,18.40
2023,05,15,00,21,18.40
2023,05,15,00,22,18.40
2023,05,15,00,23,18.40
2023,05,15,00,24,18.40
2023,05,15,00,25,18.30
2023,05,15,00,26,18.30
2023,05,15,00,27,18.30
2023,05,15,00,28,18.30
2023,05,15,00,29,18.30
2023,05,15,00,30,18.30
2023,05,15,00,31,18.30
2023,05,15,00,32,18.30
2023,05,15,00,33,18.30
2023,05,15,00,34,18.30
2023,05,15,00,35,18.30
2023,05,15,00,36,18.30
2023,05,15,00,37,18.30
2023,05,15,00,38,18.20
2023,05,15,00,39,18.20
2023,05,15,00,40,18.20
2023,05,15,00,41,18.20
2023,05,15,00,42,18.10
2023,05,15,00,43,18.10
2023,05,15,00,44,18.10
2023,05,15,00,45,18.10
2023,05,15,00,46,18.10
2023,05,15,00,47,18.10
2023,05,15,00,48,18.10
2023,05,15,00,49,18.20
2023,05,15,00,50,18.10
2023,05,15,00,51,18.10
2023,05,15,00,52,17.90
2023,05,15,00,53,17.90
2023,05,15,00,54,17.90
2023,05,15,00,55,17.90
2023,05,15,00,56,17.90
2023,05,15,00,57,18.00
2023,05,15,00,58,18.10
2023,05,15,00,59,18.10
2023,05,15,01,00,18.10
2023,05,15,01,01,18.10
2023,05,15,01,02,18.20
2023,05,15,01,03,18.20
2023,05,15,01,04,18.20
2023,05,15,01,05,18.20
2023,05,15,01,06,18.20
2023,05,15,01,07,18.20
2023,05,15,01,08,18.20
2023,05,15,01,09,18.20
2023,05,15,01,10,18.20
2023,05,15,01,11,18.20
2023,05,15,01,12,18.20
2023,05,15,01,13,18.20
2023,05,15,01,14,18.20
2023,05,15,01,15,18.20
2023,05,15,01,16,18.10
2023,05,15,01,17,18.00
2023,05,15,01,18,17.90
2023,05,15,01,19,17.90
2023,05,15,01,20,17.90
2023,05,15,01,21,17.90
2023,05,15,01,22,17.90
2023,05,15,01,23,17.80
2023,05,15,01,24,17.80
2023,05,15,01,25,17.80
2023,05,15,01,26,17.80
2023,05,15,01,27,17.80
2023,05,15,01,28,17.80
2023,05,15,01,29,17.80
2023,05,15,01,30,17.80
2023,05,15,01,31,17.80
2023,05,15,01,32,17.80
2023,05,15,01,33,17.80
2023,05,15,01,34,17.80
2023,05,15,01,35,17.90
2023,05,15,01,36,17.90
2023,05,15,01,37,17.90
2023,05,15,01,38,17.90
2023,05,15,01,39,17.90
2023,05,15,01,40,17.90
2023,05,15,01,41,17.90
2023,05,15,01,42,17.90
2023,05,15,01,43,17.80
2023,05,15,01,44,17.80
2023,05,15,01,45,17.80
2023,05,15,01,46,17.80
2023,05,15,01,47,17.70
2023,05,15,01,48,17.70
2023,05,15,01,49,17.70
2023,05,15,01,50,17.70
2023,05,15,01,51,17.60
2023,05,15,01,52,17.60
2023,05,15,01,53,17.60
2023,05,15,01,54,17.50
2023,05,15,01,55,17.50
2023,05,15,01,56,17.40
2023,05,15,01,57,17.40
2023,05,15,01,58,17.40
2023,05,15,01,59,17.30
2023,05,15,02,00,17.30
2023,05,15,02,01,17.30
2023,05,15,02,02,17.30
2023,05,15,02,03,17.20
2023,05,15,02,04,17.20
2023,05,15,02,05,17.20
2023,05,15,02,06,17.10
2023,05,15,02,07,17.10
2023,05,15,02,08,17.10
2023,05,15,02,09,17.00
2023,05,15,02,10,17.00
2023,05,15,02,11,17.00
2023,05,15,02,12,17.00
2023,05,15,02,13,17.00
2023,05,15,02,14,17.00
2023,05,15,02,15,16.90
2023,05,15,02,16,16.90
2023,05,15,02,17,16.90
2023,05,15,02,18,16.90
2023,05,15,02,19,16.90
2023,05,15,02,20,16.90
2023,05,15,02,21,16.90
2023,05,15,02,22,16.80
2023,05,15,02,23,16.80
2023,05,15,02,24,16.80
2023,05,15,02,25,16.80
2023,05,15,02,26,16.80
2023,05,15,02,27,16.70
2023,05,15,02,28,16.70
2023,05,15,02,29,16.70
2023,05,15,02,30,16.70
2023,05,15,02,31,16.70
2023,05,15,02,32,16.70
2023,05,15,02,33,16.70
2023,05,15,02,34,16.70
2023,05,15,02,35,16.70
2023,05,15,02,36,16.70
2023,05,15,02,37,16.70
2023,05,15,02,38,16.70
2023,05,15,02,39,16.70
2023,05,15,02,40,16.70
2023,05,15,02,41,16.70
2023,05,15,02,42,16.70
2023,05,15,02,43,16.70
2023,05,15,02,44,16.70
2023,05,15,02,45,16.70
2023,05,15,02,46,16.70
2023,05,15,02,47,16.70
2023,05,15,02,48,16.70
2023,05,15,02,49,16.70
2023,05,15,02,50,16.70
2023,05,15,02,51,16.70
2023,05,15,02,52,16.70
2023,05,15,02,53,16.70
2023,05,15,02,54,16.70
2023,05,15,02,55,16.60
2023,05,15,02,56,16.60
2023,05,15,02,57,16.60
2023,05,15,02,58,16.60
2023,05,15,02,59,16.60
2023,05,15,03,00,16.60
2023,05,15,03,01,16.60
2023,05,15,03,02,16.60
2023,05,15,03,03,16.60
2023,05,15,03,04,16.60
2023,05,15,03,05,16.60
2023,05,15,03,06,16.70
2023,05,15,03,07,16.70
2023,05,15,03,08,16.70
2023,05,15,03,09,16.70
2023,05,15,03,10,16.60
2023,05,15,03,11,16.60
2023,05,15,03,12,16.60
2023,05,15,03,13,16.60
2023,05,15,03,14,16.60
2023,05,15,03,15,16.60
2023,05,15,03,16,16.60
2023,05,15,03,17,16.60
2023,05,15,03,18,16.60
2023,05,15,03,19,16.60
2023,05,15,03,20,16.50
2023,05,15,03,21,16.40
2023,05,15,03,22,16.40
2023,05,15,03,23,16.40
2023,05,15,03,24,16.40
2023,05,15,03,25,16.40
2023,05,15,03,26,16.40
2023,05,15,03,27,16.40
2023,05,15,03,28,16.40
2023,05,15,03,29,16.50
2023,05,15,03,30,16.60
2023,05,15,03,31,16.70
2023,05,15,03,32,16.70
2023,05,15,03,33,16.70
2023,05,15,03,34,16.80
2023,05,15,03,35,16.80
2023,05,15,03,36,16.90
2023,05,15,03,37,17.00
2023,05,15,03,38,17.00
2023,05,15,03,39,17.10
2023,05,15,03,40,17.20
2023,05,15,03,41,17.30
2023,05,15,03,42,17.40
2023,05,15,03,43,17.50
2023,05,15,03,44,17.50
2023,05,15,03,45,17.60
2023,05,15,03,46,17.70
2023,05,15,03,47,17.80
2023,05,15,03,48,17.80
2023,05,15,03,49,17.90
2023,05,15,03,50,17.90
2023,05,15,03,51,17.90
2023,05,15,03,52,17.90
2023,05,15,03,53,17.90
2023,05,15,03,54,17.90
2023,05,15,03,55,17.90
2023,05,15,03,56,17.80
2023,05,15,03,57,17.80
2023,05,15,03,58,17.80
2023,05,15,03,59,17.80
2023,05,15,04,00,17.70
2023,05,15,04,01,17.70
2023,05,15,04,02,17.70
2023,05,15,04,03,17.60
2023,05,15,04,04,17.60
2023,05,15,04,05,17.60
2023,05,15,04,06,17.50
2023,05,15,04,07,17.50
2023,05,15,04,08,17.50
2023,05,15,04,09,17.40
2023,05,15,04,10,17.40
2023,05,15,04,11,17.30
2023,05,15,04,12,17.30
2023,05,15,04,13,17.30
2023,05,15,04,14,17.30
2023,05,15,04,15,17.30
2023,05,15,04,16,17.30
2023,05,15,04,17,17.30
2023,05,15,04,18,17.30
2023,05,15,04,19,17.30
2023,05,15,04,20,17.30
2023,05,15,04,21,17.30
2023,05,15,04,22,17.30
2023,05,15,04,23,17.40
2023,05,15,04,24,17.40
2023,05,15,04,25,17.50
2023,05,15,04,26,17.50
2023,05,15,04,27,17.50
2023,05,15,04,28,17.60
2023,05,15,04,29,17.60
2023,05,15,04,30,17.60
2023,05,15,04,31,17.60
2023,05,15,04,32,17.70
2023,05,15,04,33,17.70
2023,05,15,04,34,17.70
2023,05,15,04,35,17.70
2023,05,15,04,36,17.70
2023,05,15,04,37,17.70
2023,05,15,04,38,17.70
2023,05,15,04,39,17.70
2023,05,15,04,40,17.70
2023,05,15,04,41,17.70
2023,05,15,04,42,17.70
2023,05,15,04,43,17.60
2023,05,15,04,44,17.60
2023,05,15,04,45,17.50
2023,05,15,04,46,17.40
2023,05,15,04,47,17.30
2023,05,15,04,48,17.30
2023,05,15,04,49,17.20
2023,05,15,04,50,17.10
2023,05,15,04,51,17.00
2023,05,15,04,52,17.00
2023,05,15,04,53,16.90
2023,05,15,04,54,16.90
2023,05,15,04,55,16.80
2023,05,15,04,56,16.70
2023,05,15,04,57,16.70
2023,05,15,04,58,16.70
2023,05,15,04,59,16.60
2023,05,15,05,00,16.60
2023,05,15,05,01,16.60
2023,05,15,05,02,16.60
2023,05,15,05,03,16.60
2023,05,15,05,04,16.60
2023,05,15,05,05,16.60
2023,05,15,05,06,16.70
2023,05,15,05,07,16.80
2023,05,15,05,08,16.90
2023,05,15,05,09,17.00
2023,05,15,05,10,17.20
2023,05,15,05,11,17.30
2023,05,15,05,12,17.40
2023,05,15,05,13,17.50
2023,05,15,05,14,17.60
2023,05,15,05,15,17.70
2023,05,15,05,16,17.70
2023,05,15,05,17,17.80
2023,05,15,05,18,17.80
2023,05,15,05,19,17.70
2023,05,15,05,20,17.60
2023,05,15,05,21,17.40
2023,05,15,05,22,17.20
2023,05,15,05,23,16.90
2023,05,15,05,24,16.70
2023,05,15,05,25,16.60
2023,05,15,05,26,16.50
2023,05,15,05,27,16.40
2023,05,15,05,28,16.30
2023,05,15,05,29,16.20
2023,05,15,05,30,16.20
2023,05,15,05,31,16.10
2023,05,15,05,32,16.10
2023,05,15,05,33,16.10
2023,05,15,05,34,16.10
2023,05,15,05,35,16.10
2023,05,15,05,36,16.00
2023,05,15,05,37,15.90
2023,05,15,05,38,15.90
2023,05,15,05,39,15.90
2023,05,15,05,40,15.90
2023,05,15,05,41,15.90
2023,05,15,05,42,15.90
2023,05,15,05,43,15.80
2023,05,15,05,44,15.80
2023,05,15,05,45,15.80
2023,05,15,05,46,15.80
2023,05,15,05,47,15.80
2023,05,15,05,48,15.80
2023,05,15,05,49,15.80
2023,05,15,05,50,15.80
2023,05,15,05,51,15.80
2023,05,15,05,52,15.80
2023,05,15,05,53,15.80
2023,05,15,05,54,15.80
2023,05,15,05,55,15.80
2023,05,15,05,56,15.80
2023,05,15,05,57,15.80
2023,05,15,05,58,15.80
2023,05,15,05,59,15.80
2023,05,15,06,00,15.80
2023,05,15,06,01,15.80
2023,05,15,06,02,15.80
2023,05,15,06,03,15.80
2023,05,15,06,04,15.80
2023,05,15,06,05,15.80
2023,05,15,06,06,15.80
2023,05,15,06,07,15.90
2023,05,15,06,08,15.90
2023,05,15,06,09,15.90
2023,05,15,06,10,16.00
2023,05,15,06,11,16.10
2023,05,15,06,12,16.10
2023,05,15,06,13,16.20
2023,05,15,06,14,16.20
2023,05,15,06,15,16.30
2023,05,15,06,16,16.30
2023,05,15,06,17,16.40
2023,05,15,06,18,16.40
2023,05,15,06,19,16.50
2023,05,15,06,20,16.60
2023,05,15,06,21,16.70
2023,05,15,06,22,16.80
2023,05,15,06,23,16.90
2023,05,15,06,24,16.90
2023,05,15,06,25,17.00
2023,05,15,06,26,17.00
2023,05,15,06,27,17.00
2023,05,15,06,28,17.10
2023,05,15,06,29,17.20
2023,05,15,06,30,17.30
2023,05,15,06,31,17.30
2023,05,15,06,32,17.40
2023,05,15,06,33,17.40
2023,05,15,06,34,17.50
2023,05,15,06,35,17.60
2023,05,15,06,36,17.70
2023,05,15,06,37,17.70
2023,05,15,06,38,17.80
2023,05,15,06,39,17.90
2023,05,15,06,40,17.90
2023,05,15,06,41,18.00
2023,05,15,06,42,18.10
2023,05,15,06,43,18.20
2023,05,15,06,44,18.20
2023,05,15,06,45,18.30
2023,05,15,06,46,18.30
2023,05,15,06,47,18.40
2023,05,15,06,48,18.50
2023,05,15,06,49,18.50
2023,05,15,06,50,18.60
2023,05,15,06,51,18.60
2023,05,15,06,52,18.70
2023,05,15,06,53,18.80
2023,05,15,06,54,18.80
2023,05,15,06,55,18.90
2023,05,15,06,56,18.90
2023,05,15,06,57,19.00
2023,05,15,06,58,19.10
2023,05,15,06,59,19.10
2023,05,15,07,00,19.20
2023,05,15,07,01,19.30
2023,05,15,07,02,19.30
2023,05,15,07,03,19.40
2023,05,15,07,04,19.50
2023,05,15,07,05,19.60
2023,05,15,07,06,19.70
2023,05,15,07,07,19.80
2023,05,15,07,08,19.90
2023,05,15,07,09,20.00
2023,05,15,07,10,20.10
2023,05,15,07,11,20.20
2023,05,15,07,12,20.20
2023,05,15,07,13,20.30
2023,05,15,07,14,20.40
2023,05,15,07,15,20.40
2023,05,15,07,16,20.50
2023,05,15,07,17,20.60
2023,05,15,07,18,20.60
2023,05,15,07,19,20.70
2023,05,15,07,20,20.80
2023,05,15,07,21,20.80
2023,05,15,07,22,20.90
2023,05,15,07,23,20.90
2023,05,15,07,24,21.00
2023,05,15,07,25,21.10
2023,05,15,07,26,21.10
2023,05,15,07,27,21.20
2023,05,15,07,28,21.30
2023,05,15,07,29,21.30
2023,05,15,07,30,21.30
2023,05,15,07,31,21.30
2023,05,15,07,32,21.30
2023,05,15,07,33,21.30
2023,05,15,07,34,21.30
2023,05,15,07,35,21.30
2023,05,15,07,36,21.30
2023,05,15,07,37,21.30
2023,05,15,07,38,21.30
2023,05,15,07,39,21.30
2023,05,15,07,40,21.30
2023,05,15,07,41,21.30
2023,05,15,07,42,21.30
2023,05,15,07,43,21.30
2023,05,15,07,44,21.30
2023,05,15,07,45,21.40
2023,05,15,07,46,21.50
2023,05,15,07,47,21.60
2023,05,15,07,48,21.60
2023,05,15,07,49,21.70
2023,05,15,07,50,21.70
2023,05,15,07,51,21.80
2023,05,15,07,52,21.90
2023,05,15,07,53,22.00
2023,05,15,07,54,22.00
2023,05,15,07,55,22.00
2023,05,15,07,56,22.10
2023,05,15,07,57,22.10
2023,05,15,07,58,22.10
2023,05,15,07,59,22.20
2023,05,15,08,00,22.20
2023,05,15,08,01,22.20
2023,05,15,08,02,22.20
2023,05,15,08,03,22.30
2023,05,15,08,04,22.30
2023,05,15,08,05,22.30
2023,05,15,08,06,22.30
2023,05,15,08,07,22.30
2023,05,15,08,08,22.40
2023,05,15,08,09,22.40
2023,05,15,08,10,22.40
2023,05,15,08,11,22.40
2023,05,15,08,12,22.40
2023,05,15,08,13,22.40
2023,05,15,08,14,22.40
2023,05,15,08,15,22.40
2023,05,15,08,16,22.40
2023,05,15,08,17,22.50
2023,05,15,08,18,22.60
2023,05,15,08,19,22.60
2023,05,15,08,20,22.60
2023,05,15,08,21,22.70
2023,05,15,08,22,22.70
2023,05,15,08,23,22.70
2023,05,15,08,24,22.80
2023,05,15,08,25,22.80
2023,05,15,08,26,22.80
2023,05,15,08,27,22.80
2023,05,15,08,28,22.90
2023,05,15,08,29,22.90
2023,05,15,08,30,23.00
2023,05,15,08,31,23.10
2023,05,15,08,32,23.20
2023,05,15,08,33,23.30
2023,05,15,08,34,23.30
2023,05,15,08,35,23.30
2023,05,15,08,36,23.30
2023,05,15,08,37,23.40
2023,05,15,08,38,23.50
2023,05,15,08,39,23.60
2023,05,15,08,40,23.60
2023,05,15,08,41,23.60
2023,05,15,08,42,23.60
2023,05,15,08,43,23.70
2023,05,15,08,44,23.70
2023,05,15,08,45,23.70
2023,05,15,08,46,23.70
2023,05,15,08,47,23.70
2023,05,15,08,48,23.70
2023,05,15,08,49,23.70
2023,05,15,08,50,23.60
2023,05,15,08,51,23.70
2023,05,15,08,52,23.70
2023,05,15,08,53,23.60
2023,05,15,08,54,23.60
2023,05,15,08,55,23.50
2023,05,15,08,56,23.40
2023,05,15,08,57,23.40
2023,05,15,08,58,23.40
2023,05,15,08,59,23.40
2023,05,15,09,00,23.40
2023,05,15,09,01,23.40
2023,05,15,09,02,23.40
2023,05,15,09,03,23.50
2023,05,15,09,04,23.60
2023,05,15,09,05,23.70
2023,05,15,09,06,23.70
2023,05,15,09,07,23.70
2023,05,15,09,08,23.70
2023,05,15,09,09,23.70
2023,05,15,09,10,23.70
2023,05,15,09,11,23.70
2023,05,15,09,12,23.80
2023,05,15,09,13,23.80
2023,05,15,09,14,23.80
2023,05,15,09,15,23.70
2023,05,15,09,16,23.70
2023,05,15,09,17,23.70
2023,05,15,09,18,23.70
2023,05,15,09,19,23.70
2023,05,15,09,20,23.70
2023,05,15,09,21,23.70
2023,05,15,09,22,23.70
2023,05,15,09,23,23.70
2023,05,15,09,24,23.70
2023,05,15,09,25,23.70
2023,05,15,09,26,23.60
2023,05,15,09,27,23.60
2023,05,15,09,28,23.60
2023,05,15,09,29,23.60
2023,05,15,09,30,23.60
2023,05,15,09,31,23.60
2023,05,15,09,32,23.60
2023,05,15,09,33,23.70
2023,05,15,09,34,23.70
2023,05,15,09,35,23.70
2023,05,15,09,36,23.80
2023,05,15,09,37,23.80
2023,05,15,09,38,23.90
2023,05,15,09,39,24.00
2023,05,15,09,40,24.10
2023,05,15,09,41,24.10
2023,05,15,09,42,24.10
2023,05,15,09,43,24.10
2023,05,15,09,44,24.10
2023,05,15,09,45,24.10
2023,05,15,09,46,24.10
2023,05,15,09,47,24.10
2023,05,15,09,48,24.10
2023,05,15,09,49,24.10
2023,05,15,09,50,24.10
2023,05,15,09,51,24.10
2023,05,15,09,52,24.10
2023,05,15,09,53,24.20
2023,05,15,09,54,24.30
2023,05,15,09,55,24.40
2023,05,15,09,56,24.40
2023,05,15,09,57,24.40
2023,05,15,09,58,24.40
2023,05,15,09,59,24.40
2023,05,15,10,00,24.40
2023,05,15,10,01,24.40
2023,05,15,10,02,24.40
2023,05,15,10,03,24.40
2023,05,15,10,04,24.40
2023,05,15,10,05,24.30
2023,05,15,10,06,24.30
2023,05,15,10,07,24.40
2023,05,15,10,08,24.40
2023,05,15,10,09,24.40
2023,05,15,10,10,24.40
2023,05,15,10,11,24.40
2023,05,15,10,12,24.40
2023,05,15,10,13,24.40
2023,05,15,10,14,24.40
2023,05,15,10,15,24.50
2023,05,15,10,16,24.60
2023,05,15,10,17,24.60
2023,05,15,10,18,24.70
2023,05,15,10,19,24.80
2023,05,15,10,20,24.80
2023,05,15,10,21,24.90
2023,05,15,10,22,25.00
2023,05,15,10,23,25.10
2023,05,15,10,24,25.00
2023,05,15,10,25,25.00
2023,05,15,10,26,24.90
2023,05,15,10,27,24.90
2023,05,15,10,28,24.90
2023,05,15,10,29,24.90
2023,05,15,10,30,25.00
2023,05,15,10,31,25.10
2023,05,15,10,32,25.20
2023,05,15,10,33,25.20
2023,05,15,10,34,25.10
2023,05,15,10,35,25.10
2023,05,15,10,36,25.10
2023,05,15,10,37,25.10
2023,05,15,10,38,25.20
2023,05,15,10,39,25.30
2023,05,15,10,40,25.40
2023,05,15,10,41,25.40
2023,05,15,10,42,25.50
2023,05,15,10,43,25.50
2023,05,15,10,44,25.50
2023,05,15,10,45,25.50
2023,05,15,10,46,25.50
2023,05,15,10,47,25.60
2023,05,15,10,48,25.60
2023,05,15,10,49,25.60
2023,05,15,10,50,25.60
2023,05,15,10,51,25.60
2023,05,15,10,52,25.50
2023,05,15,10,53,25.50
2023,05,15,10,54,25.50
2023,05,15,10,55,25.40
2023,05,15,10,56,25.40
2023,05,15,10,57,25.40
2023,05,15,10,58,25.40
2023,05,15,10,59,25.40
2023,05,15,11,00,25.40
2023,05,15,11,01,25.40
2023,05,15,11,02,25.40
2023,05,15,11,03,25.40
2023,05,15,11,04,25.40
2023,05,15,11,05,25.40
2023,05,15,11,06,25.50
2023,05,15,11,07,25.50
2023,05,15,11,08,25.60
2023,05,15,11,09,25.70
2023,05,15,11,10,25.70
2023,05,15,11,11,25.70
2023,05,15,11,12,25.70
2023,05,15,11,13,25.70
2023,05,15,11,14,25.70
2023,05,15,11,15,25.60
2023,05,15,11,16,25.60
2023,05,15,11,17,25.60
2023,05,15,11,18,25.50
2023,05,15,11,19,25.50
2023,05,15,11,20,25.50
2023,05,15,11,21,25.50
2023,05,15,11,22,25.50
2023,05,15,11,23,25.50
2023,05,15,11,24,25.60
2023,05,15,11,25,25.70
2023,05,15,11,26,25.80
2023,05,15,11,27,25.90
2023,05,15,11,28,25.90
2023,05,15,11,29,26.00
2023,05,15,11,30,26.00
2023,05,15,11,31,26.10
2023,05,15,11,32,26.10
2023,05,15,11,33,26.20
2023,05,15,11,34,26.20
2023,05,15,11,35,26.20
2023,05,15,11,36,26.20
2023,05,15,11,37,26.20
2023,05,15,11,38,26.20
2023,05,15,11,39,26.20
2023,05,15,11,40,26.20
2023,05,15,11,41,26.20
2023,05,15,11,42,26.20
2023,05,15,11,43,26.30
2023,05,15,11,44,26.40
2023,05,15,11,45,26.50
2023,05,15,11,46,26.60
2023,05,15,11,47,26.50
2023,05,15,11,48,26.40
2023,05,15,11,49,26.40
2023,05,15,11,50,26.40
2023,05,15,11,51,26.40
2023,05,15,11,52,26.40
2023,05,15,11,53,26.30
2023,05,15,11,54,26.30
2023,05,15,11,55,26.30
2023,05,15,11,56,26.40
2023,05,15,11,57,26.50
2023,05,15,11,58,26.60
2023,05,15,11,59,26.60
2023,05,15,12,00,26.70
2023,05,15,12,01,26.80
2023,05,15,12,02,26.80
2023,05,15,12,03,26.80
2023,05,15,12,04,26.80
2023,05,15,12,05,26.80
2023,05,15,12,06,26.70
2023,05,15,12,07,26.70
2023,05,15,12,08,26.70
2023,05,15,12,09,26.80
2023,05,15,12,10,26.80
2023,05,15,12,11,26.70
2023,05,15,12,12,26.70
2023,05,15,12,13,26.80
2023,05,15,12,14,26.80
2023,05,15,12,15,26.80
2023,05,15,12,16,26.80
2023,05,15,12,17,26.80
2023,05,15,12,18,26.90
2023,05,15,12,19,27.00
2023,05,15,12,20,27.10
2023,05,15,12,21,27.20
2023,05,15,12,22,27.20
2023,05,15,12,23,27.20
2023,05,15,12,24,27.30
2023,05,15,12,25,27.30
2023,05,15,12,26,27.30
2023,05,15,12,27,27.30
2023,05,15,12,28,27.30
2023,05,15,12,29,27.30
2023,05,15,12,30,27.40
2023,05,15,12,31,27.40
2023,05,15,12,32,27.40
2023,05,15,12,33,27.50
2023,05,15,12,34,27.60
2023,05,15,12,35,27.40
2023,05,15,12,36,27.40
2023,05,15,12,37,27.30
2023,05,15,12,38,27.30
2023,05,15,12,39,27.20
2023,05,15,12,40,27.20
2023,05,15,12,41,27.30
2023,05,15,12,42,27.30
2023,05,15,12,43,27.50
2023,05,15,12,44,27.60
2023,05,15,12,45,27.70
2023,05,15,12,46,27.80
2023,05,15,12,47,27.90
2023,05,15,12,48,28.00
2023,05,15,12,49,28.00
2023,05,15,12,50,28.00
2023,05,15,12,51,28.00
2023,05,15,12,52,28.00
2023,05,15,12,53,28.00
2023,05,15,12,54,27.90
2023,05,15,12,55,27.90
2023,05,15,12,56,27.90
2023,05,15,12,57,27.90
2023,05,15,12,58,27.90
2023,05,15,12,59,27.90
2023,05,15,13,00,27.80
2023,05,15,13,01,27.80
2023,05,15,13,02,27.80
2023,05,15,13,03,27.80
2023,05,15,13,04,27.80
2023,05,15,13,05,27.90
2023,05,15,13,06,27.90
2023,05,15,13,07,27.90
2023,05,15,13,08,28.00
2023,05,15,13,09,28.10
2023,05,15,13,10,28.20
2023,05,15,13,11,28.20
2023,05,15,13,12,28.20
2023,05,15,13,13,28.30
2023,05,15,13,14,28.30
2023,05,15,13,15,28.40
2023,05,15,13,16,28.40
2023,05,15,13,17,28.50
2023,05,15,13,18,28.60
2023,05,15,13,19,28.60
2023,05,15,13,20,28.70
2023,05,15,13,21,28.70
2023,05,15,13,22,28.80
2023,05,15,13,23,28.90
2023,05,15,13,24,28.90
2023,05,15,13,25,28.90
2023,05,15,13,26,28.90
2023,05,15,13,27,28.90
2023,05,15,13,28,28.80
2023,05,15,13,29,28.70
2023,05,15,13,30,28.70
2023,05,15,13,31,28.70
2023,05,15,13,32,28.70
2023,05,15,13,33,28.80
2023,05,15,13,34,28.90
2023,05,15,13,35,28.90
2023,05,15,13,36,28.90
2023,05,15,13,37,28.90
2023,05,15,13,38,28.90
2023,05,15,13,39,29.00
2023,05,15,13,40,29.10
2023,05,15,13,41,29.10
2023,05,15,13,42,29.20
2023,05,15,13,43,29.30
2023,05,15,13,44,29.40
2023,05,15,13,45,29.50
2023,05,15,13,46,29.40
2023,05,15,13,47,29.40
2023,05,15,13,48,29.40
2023,05,15,13,49,29.40
2023,05,15,13,50,29.40
2023,05,15,13,51,29.40
2023,05,15,13,52,29.40
2023,05,15,13,53,29.40
2023,05,15,13,54,29.40
2023,05,15,13,55,29.50
2023,05,15,13,56,29.50
2023,05,15,13,57,29.50
2023,05,15,13,58,29.60
2023,05,15,13,59,29.60
2023,05,15,14,00,29.60
2023,05,15,14,01,29.60
2023,05,15,14,02,29.70
2023,05,15,14,03,29.70
2023,05,15,14,04,29.70
2023,05,15,14,05,29.70
2023,05,15,14,06,29.80
2023,05,15,14,07,29.80
2023,05,15,14,08,29.80
2023,05,15,14,09,29.90
2023,05,15,14,10,29.90
2023,05,15,14,11,29.90
2023,05,15,14,12,30.00
2023,05,15,14,13,30.10
2023,05,15,14,14,30.10
2023,05,15,14,15,30.00
2023,05,15,14,16,29.90
2023,05,15,14,17,29.90
2023,05,15,14,18,29.90
2023,05,15,14,19,29.80
2023,05,15,14,20,29.80
2023,05,15,14,21,29.80
2023,05,15,14,22,29.80
2023,05,15,14,23,29.80
2023,05,15,14,24,29.90
2023,05,15,14,25,29.90
2023,05,15,14,26,29.80
2023,05,15,14,27,29.80
2023,05,15,14,28,29.80
2023,05,15,14,29,29.90
2023,05,15,14,30,29.90
2023,05,15,14,31,30.00
2023,05,15,14,32,30.10
2023,05,15,14,33,30.20
2023,05,15,14,34,30.20
2023,05,15,14,35,30.20
2023,05,15,14,36,30.20
2023,05,15,14,37,30.20
2023,05,15,14,38,30.20
2023,05,15,14,39,30.20
2023,05,15,14,40,30.20
2023,05,15,14,41,30.20
2023,05,15,14,42,30.10
2023,05,15,14,43,30.00
2023,05,15,14,44,29.90
2023,05,15,14,45,29.80
2023,05,15,14,46,29.80
2023,05,15,14,47,29.80
2023,05,15,14,48,29.70
2023,05,15,14,49,29.70
2023,05,15,14,50,29.70
2023,05,15,14,51,29.70
2023,05,15,14,52,29.70
2023,05,15,14,53,29.60
2023,05,15,14,54,29.70
2023,05,15,14,55,29.70
2023,05,15,14,56,29.70
2023,05,15,14,57,29.80
2023,05,15,14,58,29.80
2023,05,15,14,59,29.90
2023,05,15,15,00,30.00
2023,05,15,15,01,30.10
2023,05,15,15,02,30.20
2023,05,15,15,03,30.20
2023,05,15,15,04,30.20
2023,05,15,15,05,30.20
2023,05,15,15,06,30.20
2023,05,15,15,07,30.20
2023,05,15,15,08,30.20
2023,05,15,15,09,30.20
2023,05,15,15,10,30.20
2023,05,15,15,11,30.30
2023,05,15,15,12,30.30
2023,05,15,15,13,30.20
2023,05,15,15,14,30.20
2023,05,15,15,15,30.10
2023,05,15,15,16,30.10
2023,05,15,15,17,30.00
2023,05,15,15,18,30.10
2023,05,15,15,19,30.10
2023,05,15,15,20,30.10
2023,05,15,15,21,30.10
2023,05,15,15,22,30.10
2023,05,15,15,23,30.10
2023,05,15,15,24,30.10
2023,05,15,15,25,30.10
2023,05,15,15,26,30.10
2023,05,15,15,27,30.20
2023,05,15,15,28,30.30
2023,05,15,15,29,30.30
2023,05,15,15,30,30.20
2023,05,15,15,31,30.20
2023,05,15,15,32,30.20
2023,05,15,15,33,30.10
2023,05,15,15,34,30.10
2023,05,15,15,35,30.10
2023,05,15,15,36,30.10
2023,05,15,15,37,30.10
2023,05,15,15,38,30.10
2023,05,15,15,39,30.10
2023,05,15,15,40,30.20
2023,05,15,15,41,30.20
2023,05,15,15,42,30.30
2023,05,15,15,43,30.30
2023,05,15,15,44,30.40
2023,05,15,15,45,30.40
2023,05,15,15,46,30.50
2023,05,15,15,47,30.60
2023,05,15,15,48,30.60
2023,05,15,15,49,30.60
2023,05,15,15,50,30.60
2023,05,15,15,51,30.60
2023,05,15,15,52,30.60
2023,05,15,15,53,30.60
2023,05,15,15,54,30.60
2023,05,15,15,55,30.70
2023,05,15,15,56,30.70
2023,05,15,15,57,30.80
2023,05,15,15,58,30.80
2023,05,15,15,59,30.90
2023,05,15,16,00,30.90
2023,05,15,16,01,30.90
2023,05,15,16,02,30.90
2023,05,15,16,03,30.90
2023,05,15,16,04,31.00
2023,05,15,16,05,31.10
2023,05,15,16,06,31.10
2023,05,15,16,07,31.20
2023,05,15,16,08,31.20
2023,05,15,16,09,31.20
2023,05,15,16,10,31.20
2023,05,15,16,11,31.20
2023,05,15,16,12,31.20
2023,05,15,16,13,31.20
2023,05,15,16,14,31.20
2023,05,15,16,15,31.30
2023,05,15,16,16,31.40
2023,05,15,16,17,31.40
2023,05,15,16,18,31.60
2023,05,15,16,19,31.60
2023,05,15,16,20,31.60
2023,05,15,16,21,31.60
2023,05,15,16,22,31.60
2023,05,15,16,23,31.70
2023,05,15,16,24,31.60
2023,05,15,16,25,31.50
2023,05,15,16,26,31.30
2023,05,15,16,27,31.10
2023,05,15,16,28,30.80
2023,05,15,16,29,30.50
2023,05,15,16,30,30.30
2023,05,15,16,31,30.20
2023,05,15,16,32,29.80
2023,05,15,16,33,29.50
2023,05,15,16,34,29.20
2023,05,15,16,35,29.00
2023,05,15,16,36,28.70
2023,05,15,16,37,28.40
2023,05,15,16,38,28.00
2023,05,15,16,39,27.70
2023,05,15,16,40,27.50
2023,05,15,16,41,27.30
2023,05,15,16,42,27.20
2023,05,15,16,43,27.00
2023,05,15,16,44,26.80
2023,05,15,16,45,26.80
2023,05,15,16,46,26.70
2023,05,15,16,47,26.70
2023,05,15,16,48,26.70
2023,05,15,16,49,26.70
2023,05,15,16,50,26.60
2023,05,15,16,51,26.40
2023,05,15,16,52,26.30
2023,05,15,16,53,26.30
2023,05,15,16,54,26.30
2023,05,15,16,55,26.20
2023,05,15,16,56,26.10
2023,05,15,16,57,26.00
2023,05,15,16,58,25.90
2023,05,15,16,59,25.90
2023,05,15,17,00,25.80
2023,05,15,17,01,25.70
2023,05,15,17,02,25.60
2023,05,15,17,03,25.60
2023,05,15,17,04,25.60
2023,05,15,17,05,25.70
2023,05,15,17,06,25.70
2023,05,15,17,07,25.70
2023,05,15,17,08,25.80
2023,05,15,17,09,25.70
2023,05,15,17,10,25.80
2023,05,15,17,11,25.80
2023,05,15,17,12,25.80
2023,05,15,17,13,25.70
2023,05,15,17,14,25.60
2023,05,15,17,15,25.60
2023,05,15,17,16,25.50
2023,05,15,17,17,25.50
2023,05,15,17,18,25.50
2023,05,15,17,19,25.40